Location: Fontevrault
(47.1823°N, 0.0493°E)
Time: 00:53:18
(UTC+00:00)

Cosmos 2322 - Visible Passes

Search period start: 23 October 2021 00:00
Search period end: 02 November 2021 00:00
Orbit: 840 x 855 km, 71.0° (Epoch: 22 October)

Date Brightness Start Highest point End Pass type
(mag) Time Alt. Az. Time Alt. Az. Time Alt. Az.
23 Oct 5.4 04:03:18 10° NNW 04:08:23 32° NE 04:13:25 10° ESE visible
23 Oct 3.9 05:47:19 10° NW 05:52:48 50° WSW 05:58:15 10° S visible
23 Oct 5.4 18:59:08 10° SSE 19:00:36 17° SSE 19:00:36 17° SSE visible
24 Oct 5.4 03:50:01 10° NNW 03:55:04 31° NE 04:00:05 10° ESE visible
24 Oct 3.9 05:34:00 10° NW 05:39:30 51° WSW 05:44:58 10° S visible
24 Oct 4.7 18:45:53 10° SSE 18:49:21 28° SE 18:49:21 28° SE visible
24 Oct 5.7 20:29:23 10° SW 20:31:24 22° WSW 20:31:24 22° WSW visible
25 Oct 5.4 03:36:43 10° NNW 03:41:46 31° NE 03:46:45 10° ESE visible
25 Oct 3.9 05:20:42 10° NW 05:26:13 52° WSW 05:31:41 10° S visible
25 Oct 4.3 18:32:37 10° SSE 18:37:35 32° ESE 18:38:00 31° E visible
25 Oct 4.9 20:16:04 10° SW 20:20:02 38° W 20:20:02 38° W visible
26 Oct 5.4 03:24:00 12° N 03:28:27 30° NE 03:33:25 10° ESE visible
26 Oct 3.8 05:07:23 10° NW 05:12:55 53° WSW 05:18:23 10° S visible
26 Oct 4.4 18:19:21 10° SSE 18:24:18 31° ESE 18:26:28 24° ENE visible
26 Oct 4.5 20:02:45 10° SW 20:08:16 48° NW 20:08:29 47° NW visible
27 Oct 5.4 03:12:13 20° N 03:15:08 30° NE 03:20:05 10° ESE visible
27 Oct 3.8 04:54:15 11° NW 04:59:37 54° WSW 05:05:07 10° S visible
27 Oct 4.4 18:06:06 10° SSE 18:11:00 30° ESE 18:14:41 16° NE visible
27 Oct 4.5 19:49:25 10° SW 19:54:57 48° NW 19:56:42 37° N visible
27 Oct 6.6 21:38:09 10° WNW 21:38:42 11° NW 21:38:42 11° NW visible
28 Oct 5.4 03:00:42 27° NNE 03:01:49 29° NE 03:06:44 10° ESE visible
28 Oct 3.7 04:42:44 22° NW 04:46:20 55° WSW 04:51:50 10° S visible
28 Oct 4.5 17:52:50 10° SSE 17:57:42 30° ESE 18:02:37 10° NE visible
28 Oct 4.5 19:36:06 10° SW 19:41:39 49° WNW 19:44:40 26° N visible
28 Oct 6.5 21:24:46 10° WNW 21:26:39 13° NW 21:26:39 13° NW visible
29 Oct 5.5 02:49:20 28° ENE 02:49:20 28° ENE 02:53:24 10° ESE visible
29 Oct 3.7 04:31:23 41° WNW 04:33:02 56° WSW 04:38:33 10° S visible
29 Oct 4.5 17:39:34 10° SSE 17:44:25 29° ESE 17:49:18 10° NE visible
29 Oct 4.5 19:22:47 10° SW 19:28:21 50° WNW 19:32:24 18° NNE visible
29 Oct 6.4 21:11:23 10° WNW 21:13:59 13° NNW 21:14:23 13° NNW visible
30 Oct 5.9 02:38:05 19° E 02:38:05 19° E 02:40:04 10° ESE visible
30 Oct 3.7 04:20:08 56° SW 04:20:08 56° SW 04:25:15 10° S visible
30 Oct 4.6 17:26:19 10° SSE 17:31:08 29° ESE 17:35:58 10° NE visible
30 Oct 4.5 19:09:28 10° SW 19:15:02 51° WNW 19:19:57 13° NNE visible
30 Oct 6.4 20:58:00 10° WNW 21:00:39 13° NNW 21:01:55 12° NNW visible
31 Oct 4.7 04:08:55 32° S 04:08:55 32° S 04:11:58 10° S visible
31 Oct 4.6 17:13:03 10° SSE 17:17:51 28° ESE 17:22:39 10° NE visible
31 Oct 4.5 18:56:09 10° SW 19:01:44 52° WNW 19:07:19 10° NNE visible
31 Oct 6.4 20:44:37 10° WNW 20:47:20 13° NW 20:49:18 11° NNW visible
01 Nov 5.7 03:57:40 16° S 03:57:40 16° S 03:58:40 10° S visible
01 Nov 4.4 18:42:50 10° SW 18:48:25 53° WNW 18:54:02 10° NNE visible
01 Nov 6.4 20:31:14 10° WNW 20:34:00 14° NW 20:36:35 10° N visible
